Location: Crescent
(42.8242°N, 73.7329°W)
Time: 08:16:41
(UTC+00:00)

Vanguard 1 - Pass Details

Date: 23 February 2026
Orbit: 653 x 3818 km, 34.2° (Epoch: 12 March)

Event Time Altitude Azimuth Distance (km) Brightness Sun altitude
Rises 23:35:36 0° 275° (W) 5,471 15.9 -11.5°
Reaches altitude 10° 23:38:46 10° 270° (W) 4,823 15.1 -12.1°
Maximum altitude 23:52:49 48° 202° (SSW) 3,819 13.1 -14.6°
Drops below altitude 10° 00:13:44 10° 137° (SE) 6,909 13.9 -18.5°
Enters shadow 00:18:30 - 133° (SE) 7,746 14.2 -19.3°
Sets 00:19:30 0° 132° (SE) 7,921 - -19.5°
